Back to catalog

MISR-D-2

AliveMilitarySSO
NORAD 69915·PAYLOAD·🇺🇸 United States

Launched Jul 7, 2026 from Vandenberg Space Force Base

Loading…

Next Passes (next 24 hours)

TLE

FreshSource: Space-Track

Epoch: Sep 13, 2026, 16:37 UTC

1 69915U 26156AY  26256.69253551  .00001217  00000-0  12606-3 0  9996
2 69915  97.7434 155.9829 0005279 289.5378  70.5270 14.91852584 10199

Track MISR-D-2 in real time with AllMySat

Download on the App Store